Regional Weather Roundup
Issued by NWS Newport/Morehead, NC

Current Version | Previous Version | Graphics & Text | Print | Product List | Glossary Off
Versions: 1 2 3 4 5 6 7 8 9 10 11 12 13 14 15 16 17 18 19 20 21 22 23 24 25 26 27 28 29 30 31 32 33 34 35 36 37 38 39 40 41 42 43 44 45 46 47 48 49 50

000
ASUS42 KMHX 250225
RWRMHX
WEATHER ROUNDUP FOR EASTERN NORTH CAROLINA
NATIONAL WEATHER SERVICE NEWPORT/MOREHEAD CITY NC
1000 PM EDT SUN JUL 24 2016

NOTE: "FAIR" INDICATES FEW OR NO CLOUDS BELOW 12,000 FEET
WITH NO SIGNIFICANT WEATHER AND/OR OBSTRUCTIONS TO VISIBILITY

NCZ015>017-031-032-045>047-102-103-250300-
NORTH COAST

CITY           SKY/WX    TMP DP  RH WIND       PRES   REMARKS
EDENTON        CLEAR     87  77  72 S7        30.03R
ELIZABETH CITY PTCLDY    84  78  82 S7        30.02R
KITTY HAWK     CLEAR     84  76  78 S7        30.02R
MANTEO           N/A     84  80  87 SW13      30.03R

$$

NCZ045>047-081-094-103-104-250300-
CENTRAL COAST

CITY           SKY/WX    TMP DP  RH WIND       PRES   REMARKS
FRISCO         CLEAR     83  78  85 SW8       30.05R

$$

NCZ095-097-098-100-101-250300-
SOUTHERN COAST

CITY           SKY/WX    TMP DP  RH WIND       PRES   REMARKS
BEAUFORT       CLEAR     83  76  79 SW12      30.05R
CEDAR ISLAND   NOT AVBL
JACKSONVILLE   CLEAR     81  76  84 S6        30.04R
PINEY ISLAND   NOT AVBL
WILMINGTON     CLEAR     81  74  79 S5        30.05R


$$

NCZ011>013-027>030-043-044-078>080-089-090>093-098-250300-
COASTAL PLAIN

CITY           SKY/WX    TMP DP  RH WIND       PRES   REMARKS
AHOSKIE        CLEAR     79  78  97 CALM      30.02R
CLINTON        CLEAR     82  78  88 CALM      30.04R
ELIZABETHTOWN  PTCLDY    82  78  87 SE3       30.04R
GOLDSBORO      CLEAR     84  79  85 S7        30.02R
GREENVILLE     CLEAR     84  77  79 SW7       30.05R
HAVELOCK       CLEAR     81  76  84 S5        30.06R
KENANSVILLE    NOT AVBL
KINSTON        CLEAR     82  75  78 S5        30.04R
NEW BERN       PTCLDY    81  75  82 S7        30.05R
RICHLANDS      NOT AVBL
ROCKY MOUNT    CLEAR     81  76  84 S5        30.02R
WASHINGTON     CLEAR     82  75  80 CALM      30.03R
WHITEVILLE     PTCLDY    82  78  87 S3        30.04R

$$

AMZ130-135-150-152-154-156-158-170-250-252-270-ANZ085-086-088-633-658-670-250300-
MARINE OBSERVATIONS

STATION/POSITION TIME  TEMP    WIND        PRES    WAVE   SWELL
                       AIR SEA DIR/SP/G            HT/PER HT/PER
                 (UTC) (F)     (DEG/KT/KT) (MB)    (FT/S) (FT/S)
CHESAPEAKE LIGHT NOT AVBL
64 E VA BEACH    0150   83 81  210/ 12/ 14 1016.1    2/ 4   2/ 9
DUCK             0100   87 69  200/ 11/ 16   N/A
2 E DUCK         0111      78                N/A     1/ 9
OREGON INLET     0100   85 86  200/ 14/ 16   N/A
13E OREGON INLT  0200      83                N/A     2/ 9   2/ 9
HATTERAS CG      0100   83 84  210/  8/ 13   N/A
DIAMOND BUOY     0150   85 85  220/ 14/ 16 1017.6    2/ 8   2/ 8
CAPE LOOKOUT     0200   83     210/  9/ 11 1017.5
BEAUFORT LAB     0100   84 85  210/ 11/ 14   N/A
30 SE NEW RVR IN 0208   85 85  210/ 12/ 14 1017.7
30 SE NEW RVR IN 0125      85                N/A     3/ 8
27 SE WRIGHTSVLE 0208   84 85  210/ 12/ 16 1017.8
5 SE WRIGHTSVLE  0208   84 84  220/ 12/ 16 1018.2
225 S CAPE HAT   0150   84 85  180/  2/  4 1019.2    2/ 9   2/ 9
41 SE CHARLESTON 0150   85 86  190/ 10/ 12 1017.0    2/ 8   2/ 8

$$




USA.gov is the U.S. government's official web portal to all federal, state and local government web resources and services.